KCKP

Details ICAO KCKP
Name CHEROKEE MUNI
Region United States
Timezone America/Chicago (UTC-5.0)
Plans Departing 0
Arriving 0
Stats Elevation 1,226 ft / 374 m (AMSL)
Location 42.732122° -95.556098°
Runways 2
Magnetic Variation 2.162° E
Sunrise 2018-05-23 10:53:54 UTC / 2018-05-23 05:53:54 Local
Sunset 2018-05-24 01:46:57 UTC / 2018-05-23 20:46:57 Local
Advertisement - Login to hide

Runways

ID Width Length Bearing (true) Bearing (mag) Surface Threshold Offset Overrun Length
01 100 ft / 30 m 1,983 ft / 604 m 10.96° 8.80° Grass 0 ft / 0 m 0 ft / 0 m
18 75 ft / 23 m 4,004 ft / 1,221 m 182.72° 180.56° Concrete 200 ft / 61 m 0 ft / 0 m
19 100 ft / 30 m 1,983 ft / 604 m 190.96° 188.80° Grass 0 ft / 0 m 0 ft / 0 m
36 75 ft / 23 m 4,004 ft / 1,221 m 2.72° 0.56° Concrete 0 ft / 0 m 0 ft / 0 m

Map

Weather


0- 5 10 15 20 25 30 35+ Temperature / ° C

Clouds and Precipitation
Forecast for 2018-05-24 00:00 UTC. Updated 5 hours ago

Ground ~20,000 ft ~40,000 ft Winds

METAR

KCKP 240435Z AUTO 16013KT 10SM CLR 24/18 A3001 RMK AO2 T02420178

TAF

Not found

Frequencies

Recorded 119.22 MHz AWOS 3
Unicom 122.80 MHz CTAF/UNICOM
Warning: Do not use this data for real-world aviation or navigation. No guarantee of current accuracy is given.